Regional Weather Roundup
Issued by NWS Sioux Falls, SD

Home | Current Version | Previous Version | Graphics & Text | Print | Product List | Glossary On
Versions: 1 2 3 4 5 6 7 8 9 10 11 12 13 14 15 16 17 18 19 20 21 22 23 24 25 26 27 28 29 30 31 32 33 34 35 36 37 38 39 40 41 42 43 44 45 46 47 48 49 50
000
ASUS43 KFSD 260102
RWRFSD

WEATHER ROUNDUP FOR SE SOUTH DAKOTA/SW MINNESOTA/NW IOWA
NATIONAL WEATHER SERVICE SIOUX FALLS SD
700 PM CST SAT FEB 25 2017

NOTE: "FAIR" INDICATES FEW OR NO CLOUDS BELOW 12,000 FEET WITH NO
SIGNIFICANT WEATHER AND OR OBSTRUCTIONS TO VISIBILITY.


SDZ038>040-050-052>070-260200-
SOUTHEAST SOUTH DAKOTA

CITY           SKY/WX    TMP DP  RH WIND       PRES   REMARKS
BROOKINGS      CLEAR     25  18  74 S13       29.79F WCI  14
CHAMBERLAIN    CLOUDY    32  24  72 SW6       29.77S WCI  26
HURON          CLOUDY    31  22  69 S8        29.77F WCI  23
MADISON        FAIR      25  23  93 S15       29.79F WCI  12
MITCHELL       CLOUDY    29  21  72 S12       29.81F WCI  19
SIOUX FALLS    CLOUDY    26  18  71 S15       29.84F WCI  14
WINNER         FAIR      29  21  72 SW10      29.78F WCI  20
YANKTON        CLEAR     27  18  69 S7        29.85F WCI  19
$$

MNZ071-072-080-081-089-090-097-098-260200-
SOUTHWEST MINNESOTA

CITY           SKY/WX    TMP DP  RH WIND       PRES   REMARKS
FAIRMONT       CLOUDY    24  17  74 S15       29.90F WCI  11
JACKSON        CLOUDY    25  14  63 S12       29.88F WCI  14
LUVERNE        PTCLDY    23  18  80 S9        29.86F WCI  13
MARSHALL       PTCLDY    28  20  71 SW15      29.82F WCI  16
MONTEVIDEO     PTCLDY    30  21  69 SW12      29.82F WCI  21
PIPESTONE      CLEAR     25  16  68 SW16      29.81F WCI  12
REDWOOD FALLS  MOCLDY    29  18  63 SW15      29.84F WCI  18
TRACY          CLOUDY    28  19  69 SW16G22   29.83F WCI  16
WINDOM         CLOUDY    27  16  63 S16       29.85F WCI  14
WORTHINGTON    CLOUDY    23  16  74 S15       29.85F WCI  10
$$

IAZ001>003-012>014-020>022-031-032-NEZ013-014-SDZ071-260200-
NORTHWEST IOWA

CITY           SKY/WX    TMP DP  RH WIND       PRES   REMARKS
CHEROKEE       MOCLDY    23  15  71 S7        29.91F WCI  15
DENISON        PTCLDY    25  16  68 S8        29.92F WCI  16
ESTHERVILLE    CLOUDY    21  16  81 S10       29.89F WCI  10
LE MARS        CLEAR     25  18  74 S13       29.90F WCI  13
SHELDON        MOCLDY    23  21  93 S15G22    29.86F WCI  10
SIOUX CITY     CLEAR     27  17  66 S9        29.92F WCI  18
SPENCER        CLEAR     21  13  71 S13       29.90F WCI   9
STORM LAKE     CLOUDY    21  16  79 S13       29.92S WCI   9
$$

ABBREVIATIONS USED IN REMARKS
   TC - TEMPERATURE IN CELSIUS
  WCI - WIND CHILL INDEX
   HX - HEAT INDEX
  VSB - VISIBILITY




USA.gov is the U.S. government's official web portal to all federal, state and local government web resources and services.